Regional Weather Roundup
Issued by NWS Charleston, SC

Current Version | Previous Version | Text Only | Print | Product List | Glossary Off
Versions: 1 2 3 4 5 6 7 8 9 10 11 12 13 14 15 16 17 18 19 20 21 22 23 24 25 26 27 28 29 30 31 32 33 34 35 36 37 38 39 40 41 42 43 44 45 46 47 48 49 50

000
ASUS42 KCHS 271328
RWRCHS

REGIONAL WEATHER ROUNDUP
NATIONAL WEATHER SERVICE CHARLESTON SC
900 AM EDT WED JUL 27 2016

NOTE: "FAIR" INDICATES FEW OR NO CLOUDS BELOW 12,000 FEET WITH NO
SIGNIFICANT WEATHER AND/OR OBSTRUCTIONS TO VISIBILITY.

NOT ALL STATIONS ARE QUALITY CONTROLLED. USE DATA WITH CAUTION...
ESPECIALLY DEWPOINT OBSERVATIONS.

SCZ027-030-031-034>040-042>050-271400-
...SOUTHEAST SOUTH CAROLINA...

CITY           SKY/WX    TMP DP  RH WIND       PRES   REMARKS
N CHARLESTON   MOSUNNY   85  73  67 W9        30.05R HX  91
WATERFRONT PRK   N/A     83  75  76 VRB3      30.02R HX  90
MOUNT PLEASANT FAIR      84  75  74 W8        30.05R HX  92
JOHNS ISLAND   FAIR      86  75  70 W8        30.05S HX  95
PINOPOLIS        N/A     81  75  83 SW8       29.97R
MONCKS CORNER  FAIR      81  72  74 W5        30.04S
SUMMERVILLE    FAIR      84  75  74 W7        30.06R HX  92
BEAUFORT MCAS  SUNNY     85  73  67 W10       30.06R HX  91
BEAUFORT ARPT  FAIR      84  73  70 W13       30.06R HX  91
HILTON HEAD IS SUNNY     82  73  74 SW6       30.07S
WALTERBORO     SUNNY     86  73  66 W8        30.06S HX  93
ALLENDALE      FAIR      82  75  78 VRB6G13   30.06R

...SOUTHERN MIDLANDS AND PEE DEE...

CITY           SKY/WX    TMP DP  RH WIND       PRES   REMARKS
GEORGETOWN     FAIR      82  73  74 W7        30.05R
KINGSTREE      FAIR      82  73  74 W7        30.03S
ORANGEBURG     SUNNY     83  74  74 W9        30.05S
BARNWELL       NOT AVBL
AIKEN          FAIR      82  72  69 W10       30.10R
MANNING        FAIR      82  73  74 W6        30.04S
COLUMBIA       MOSUNNY   86  73  65 W6        30.03R HX  93
SUMTER         SUNNY     83  73  71 W9        30.01R
FLORENCE       SUNNY     85  74  69 W8        30.02S HX  92
MYRTLE BEACH   SUNNY     84  70  61 W9        30.04R
N MYRTLE BEACH SUNNY     85  75  72 W7        30.02R HX  93

$$

GAZ063-065-086>088-099>101-113>116-118-119-134>141-150-271400-
...SOUTHEAST GEORGIA...

CITY           SKY/WX    TMP DP  RH WIND       PRES   REMARKS
SAVANNAH ARPT  MOSUNNY   83  73  72 W9        30.08R
HUNTER AAF     SUNNY     83  77  81 W9        30.05S HX  92
FORT STEWART   SUNNY     82  73  73 W6        30.06R
STATESBORO     SUNNY     83  76  79 W7        30.08R HX  91
SYLVANIA       NOT AVBL
CLAXTON        FAIR      84  75  74 SW8       30.08R HX  92

...CSRA...CENTRAL AND FAR SOUTHEAST GEORGIA...

CITY           SKY/WX    TMP DP  RH WIND       PRES   REMARKS
THOMSON        NOT AVBL
AUGUSTA-BUSH   SUNNY     82  73  74 W8        30.05S
AUGUSTA-DANIEL SUNNY     83  73  72 W8        30.07R
SWAINSBORO     FAIR      82  73  74 W7        30.09S
VIDALIA        SUNNY     82  72  69 W8        30.09S
EASTMAN        FAIR      83  67  59 W3        30.11R
HAZLEHURST     FAIR      84  77  79 CALM      30.08S HX  94
ALMA           SUNNY     80  74  81 SW5       30.09R
WAYCROSS       SUNNY     85  78  79 CALM      30.10S HX  98
JESUP          FAIR      84  79  84 W3        30.09S HX  96
BAXLEY         FAIR      82  79  89 W5        30.09S HX  93
BRUNSWICK      SUNNY     86  77  74 W5        30.10S HX  97
SAINT SIMONS   SUNNY     84  73  69 W6        30.09R HX  90

$$

SCZ027-028-034-036>038-045-046-048>050-GAZ119-141-271400-
...LAKE AND SUPPLEMENTAL COASTAL OBSERVATIONS...

STATION/POSITION TIME  TEMP    WIND        PRES    WAVE   SWELL
                       AIR SEA DIR/SP/G            HT/PER HT/PER/DIR
                 (UTC) (F)     (DEG/KT/KT) (MB)    (FT/S) (FT/S/D)
WINYAH BAY       1200   81     270/  6     1016.0S
LAKE MURRAY      1230   82     250/  7/  8 1016.6
ACE BASIN NERRS  1200   81     240/  2     1018.0R
FORT PULASKI     1300   82 87  270/ 10/ 12 1018.6R
SAPELO ISLAND    1300   83     270/  6     1019.0R

$$

ANZ835-935-AMZ111-154-330-350-352-354-370-450-454-472-271400-
...C-MAN AND BUOY OBSERVATIONS...

STATION/POSITION TIME  TEMP    WIND        PRES    WAVE   SWELL
                       AIR SEA DIR/SP/G            HT/PER HT/PER/DIR
                 (UTC) (F)     (DEG/KT/KT) (MB)    (FT/S) (FT/S/D)
BUOY 41004       1250   85 86  260/ 16/ 17 1016.9R   4/ 5
BUOY 41008       1250   83 86  280/ 12/ 14 1018.6R   2/ 3
FOLLY BEACH CMAN 1300   85     260/  6/  8 1017.6R
CAPERS NEARSHORE 1308   83 83  270/ 10/ 14 1017.2R
FRIPP NEARSHORE  1308   82 86  280/ 12/ 16 1017.3R


STATION/POSITION TIME  TEMP    WIND        PRES    WAVE   SWELL
                       AIR SEA DIR/SP/G            HT/PER HT/PER/DIR
                 (UTC) (F)     (DEG/KT/KT) (MB)    (FT/S) (FT/S/D)
5E ST. MARYS GA  1301      86                N/A     1/ 5
FRYING PAN BUOY  1300   84 85  250/ 16/ 17 1016.5R
BUOY 41025       1250   84 84  260/ 14/ 16 1015.1R   4/ 5   2/260/ 9
CAPE LOOKOUT NC  1200   83     250/ 15/ 17 1015.0R
BUOY 41002       1150   84 84  270/ 14/ 17 1017.5    3/ 5   2/150/ 8
BUOY 41010       1220   85 86  200/  6/  8 1019.2R
ST AUGUSTINE FL  1300   82 84   20/  3/  4 1020.3R


$$




USA.gov is the U.S. government's official web portal to all federal, state and local government web resources and services.